| time (UTC) | temp F | wind direction | speed MPH | gust MPH | rain 1hr in | rain 24hr in | rain mn in | humidity % | barometer mb |
| 20260505041624 | 71 | 127 | 1.0 | 7.0 | 0.00 | 0.00 | 0.00 | 31 | 1012.0 |
| 20260505040624 | 71 | 332 | 2.0 | 7.0 | 0.00 | 0.00 | 0.00 | 31 | 1012.1 |
| 20260505035625 | 70 | 25 | 2.0 | 7.0 | 0.00 | 0.00 | 0.00 | 32 | 1012.1 |
| 20260505034625 | 69 | 90 | 1.0 | 7.0 | 0.00 | 0.00 | 0.00 | 37 | 1012.4 |
| 20260505033624 | 67 | 203 | 1.0 | 7.0 | 0.00 | 0.00 | 0.00 | 38 | 1012.6 |
| 20260505032624 | 68 | 78 | 0.0 | 7.0 | 0.00 | 0.00 | 0.00 | 34 | 1012.7 |
| 20260505031624 | 66 | 156 | 1.0 | 7.0 | 0.00 | 0.00 | 0.00 | 38 | 1012.9 |
| 20260505030625 | 67 | 113 | 0.0 | 7.0 | 0.00 | 0.00 | 0.00 | 40 | 1012.9 |
| 20260505025625 | 67 | 0 | 1.0 | 7.0 | 0.00 | 0.00 | 0.00 | 41 | 1013.4 |
| 20260505024624 | 66 | 270 | 1.0 | 7.0 | 0.00 | 0.00 | 0.00 | 46 | 1013.4 |
| 20260505023624 | 66 | 88 | 1.0 | 7.0 | 0.00 | 0.00 | 0.00 | 43 | 1013.7 |
| 20260505022624 | 64 | 132 | 0.0 | 7.0 | 0.00 | 0.00 | 0.00 | 54 | 1013.8 |
| 20260505021623 | 64 | 113 | 0.0 | 7.0 | 0.00 | 0.00 | 0.00 | 59 | 1013.7 |
| 20260505020625 | 63 | 154 | 2.0 | 7.0 | 0.00 | 0.00 | 0.00 | 60 | 1013.8 |
| 20260505015625 | 63 | 158 | 1.0 | 6.0 | 0.00 | 0.00 | 0.00 | 62 | 1013.8 |
| 20260505014624 | 64 | 64 | 1.0 | 6.0 | 0.00 | 0.00 | 0.00 | 58 | 1013.9 |
| 20260505013624 | 64 | 109 | 1.0 | 6.0 | 0.00 | 0.00 | 0.00 | 60 | 1013.7 |
| 20260505012623 | 63 | 98 | 1.0 | 6.0 | 0.00 | 0.00 | 0.00 | 62 | 1013.9 |
| 20260505011625 | 62 | 103 | 1.0 | 6.0 | 0.00 | 0.00 | 0.00 | 62 | 1013.9 |
| 20260505010625 | 62 | 113 | 1.0 | 6.0 | 0.00 | 0.00 | 0.00 | 62 | 1013.9 |
| 20260505005624 | 62 | 113 | 0.0 | 6.0 | 0.00 | 0.00 | 0.00 | 65 | 1014.2 |
| 20260505004624 | 61 | 45 | 1.0 | 6.0 | 0.00 | 0.00 | 0.00 | 67 | 1014.0 |
| 20260505003624 | 61 | 10 | 0.0 | 6.0 | 0.00 | 0.00 | 0.00 | 68 | 1013.9 |
| 20260505002625 | 60 | 108 | 1.0 | 6.0 | 0.00 | 0.00 | 0.00 | 68 | 1013.6 |
| 20260505001625 | 60 | 270 | 0.0 | 6.0 | 0.00 | 0.00 | 0.00 | 69 | 1013.8 |
| 20260505000624 | 60 | 143 | 1.0 | 4.0 | 0.00 | 0.00 | 0.00 | 67 | 1013.6 |
| 20260504235624 | 60 | 135 | 2.0 | 4.0 | 0.00 | 0.00 | 0.00 | 66 | 1013.5 |
| 20260504234623 | 60 | 157 | 1.0 | 4.0 | 0.00 | 0.00 | 0.00 | 67 | 1013.7 |
| 20260504233625 | 60 | 135 | 0.0 | 4.0 | 0.00 | 0.00 | 0.00 | 68 | 1013.6 |
| 20260504232624 | 59 | 315 | 1.0 | 4.0 | 0.00 | 0.00 | 0.00 | 63 | 1013.9 |
| 20260504231624 | 58 | 23 | 1.0 | 4.0 | 0.00 | 0.00 | 0.00 | 63 | 1013.8 |
| 20260504230624 | 57 | 293 | 1.0 | 4.0 | 0.00 | 0.00 | 0.00 | 69 | 1013.9 |
| 20260504225625 | 55 | 135 | 0.0 | 2.0 | 0.00 | 0.00 | 0.00 | 70 | 1013.8 |
| 20260504224625 | 55 | 135 | 0.0 | 2.0 | 0.00 | 0.00 | 0.00 | 74 | 1013.5 |
| 20260504223624 | 54 | 135 | 0.0 | 2.0 | 0.00 | 0.00 | 0.00 | 77 | 1013.4 |
| 20260504222624 | 53 | 135 | 0.0 | 2.0 | 0.00 | 0.00 | 0.00 | 82 | 1013.3 |
| 20260504221623 | 53 | 135 | 0.0 | 2.0 | 0.00 | 0.00 | 0.00 | 89 | 1013.5 |
| 20260504220625 | 51 | 135 | 0.0 | 2.0 | 0.00 | 0.00 | 0.00 | 92 | 1013.4 |
| 20260504215625 | 50 | 135 | 0.0 | 2.0 | 0.00 | 0.00 | 0.00 | 95 | 1013.2 |
| 20260504214624 | 50 | 135 | 0.0 | 2.0 | 0.00 | 0.00 | 0.00 | 96 | 1013.1 |
| 20260504213624 | 49 | 135 | 0.0 | 2.0 | 0.00 | 0.00 | 0.00 | 96 | 1013.2 |
| 20260504212625 | 48 | 135 | 0.0 | 2.0 | 0.00 | 0.00 | 0.00 | 96 | 1013.1 |
| 20260504211624 | 47 | 135 | 0.0 | 2.0 | 0.00 | 0.00 | 0.00 | 97 | 1012.9 |
| 20260504210624 | 46 | 158 | 0.0 | 2.0 | 0.00 | 0.00 | 0.00 | 97 | 1012.6 |
| 20260504205624 | 46 | 158 | 0.0 | 2.0 | 0.00 | 0.00 | 0.00 | 97 | 1012.4 |
| 20260504204623 | 46 | 158 | 0.0 | 2.0 | 0.00 | 0.00 | 0.00 | 97 | 1012.4 |
| 20260504203625 | 46 | 158 | 0.0 | 2.0 | 0.00 | 0.00 | 0.00 | 97 | 1012.4 |
| 20260504202625 | 46 | 158 | 0.0 | 2.0 | 0.00 | 0.00 | 0.00 | 97 | 1011.9 |
| 20260504201624 | 45 | 248 | 0.0 | 2.0 | 0.00 | 0.00 | 0.00 | 96 | 1011.9 |
| 20260504200623 | 46 | 248 | 0.0 | 2.0 | 0.00 | 0.00 | 0.00 | 96 | 1011.7 |
| 20260504195625 | 46 | 248 | 0.0 | 2.0 | 0.00 | 0.00 | 0.00 | 96 | 1011.7 |
| 20260504194625 | 46 | 248 | 0.0 | 2.0 | 0.00 | 0.00 | 0.00 | 96 | 1011.5 |
| 20260504193624 | 46 | 248 | 0.0 | 2.0 | 0.00 | 0.00 | 0.00 | 95 | 1011.2 |
| 20260504192624 | 46 | 248 | 0.0 | 2.0 | 0.00 | 0.00 | 0.00 | 95 | 1010.8 |
| 20260504191623 | 47 | 248 | 0.0 | 2.0 | 0.00 | 0.00 | 0.00 | 95 | 1010.9 |
| 20260504190623 | 47 | 248 | 0.0 | 2.0 | 0.00 | 0.00 | 0.00 | 94 | 1010.8 |
| 20260504185625 | 47 | 248 | 0.0 | 2.0 | 0.00 | 0.00 | 0.00 | 94 | 1010.8 |
| 20260504184624 | 47 | 248 | 0.0 | 2.0 | 0.00 | 0.00 | 0.00 | 94 | 1010.8 |
| 20260504183624 | 48 | 248 | 0.0 | 2.0 | 0.00 | 0.00 | 0.00 | 93 | 1010.6 |
| 20260504182624 | 48 | 248 | 0.0 | 2.0 | 0.00 | 0.00 | 0.00 | 92 | 1010.8 |
| 20260504181623 | 48 | 248 | 0.0 | 2.0 | 0.00 | 0.00 | 0.00 | 92 | 1010.5 |
| 20260504180625 | 49 | 248 | 0.0 | 2.0 | 0.00 | 0.00 | 0.00 | 91 | 1010.6 |
| 20260504175624 | 49 | 248 | 0.0 | 2.0 | 0.00 | 0.00 | 0.00 | 91 | 1010.4 |
| 20260504174624 | 49 | 248 | 0.0 | 2.0 | 0.00 | 0.00 | 0.00 | 91 | 1010.2 |
| 20260504173623 | 49 | 293 | 0.0 | 0.0 | 0.00 | 0.00 | 0.00 | 91 | 1010.2 |
| 20260504172625 | 49 | 293 | 0.0 | 0.0 | 0.00 | 0.00 | 0.00 | 90 | 1010.0 |
| 20260504171624 | 50 | 293 | 0.0 | 0.0 | 0.00 | 0.00 | 0.00 | 90 | 1010.0 |
| 20260504170624 | 51 | 293 | 0.0 | 0.0 | 0.00 | 0.00 | 0.00 | 88 | 1009.9 |
| 20260504150623 | 55 | 45 | 1.0 | 0.0 | 0.00 | 0.06 | 0.00 | 80 | 1009.5 |
| 20260504140624 | 55 | 338 | 0.0 | 24.0 | 0.00 | 0.06 | 0.06 | 78 | 1009.3 |
| 20260504130624 | 56 | 47 | 1.0 | 24.0 | 0.00 | 0.52 | 0.06 | 77 | 1008.6 |
| 20260504110623 | 58 | 148 | 1.0 | 24.0 | 0.00 | 0.74 | 0.06 | 78 | 1006.8 |
| 20260504081624 | 62 | 309 | 2.0 | 24.0 | 0.00 | 0.96 | 0.06 | 67 | 1002.9 |
| 20260504080624 | 63 | 127 | 0.0 | 24.0 | 0.00 | 0.97 | 0.06 | 68 | 1002.6 |
| 20260504050624 | 67 | 190 | 7.0 | 24.0 | 0.00 | 1.04 | 0.06 | 60 | 1000.3 |
| 20260504045624 | 66 | 338 | 7.0 | 24.0 | 0.00 | 1.04 | 0.06 | 60 | 1000.2 |